Snowfall_Accumulation
0.0 0.0 0.0 0.0 0.0 0.0 0.0 0.0 0.0 0.0 0.0 0.0 0.0 0.0 0.0 0.0 0.0 0.0 0.0 0.0 0.0 0.0 0.0 0.0 0.0 0.0 0.0 0.0 0.0 0.0 0.0 0.0 0.0 0.0 0.0 0.0 0.0 0.0 0.0 0.0 0.0 0.0 0.0 0.0
0.0 0.0 0.0 0.0 0.0 0.0 0.0 0.0 0.0 0.0 0.0 0.0 0.0 0.0 0.0 0.0 0.0 0.0 0.0 0.0 0.0 0.0 0.0 0.0 0.0 0.0 0.0 0.0 0.0 0.0 0.0 0.0 0.0 0.0 0.0 0.0 0.0 0.0 0.0 0.0 0.0 0.0 0.0 0.0
0.0 0.0 0.0 0.0 0.0 0.0 0.0 0.0 0.0 0.0 0.0 0.0 0.0 0.0 0.0 0.0 0.0 0.0 0.0 0.0 0.0 0.0 0.0 0.0 0.0 0.0 0.0 0.0 0.0 0.0 0.0 0.0 0.0 0.0 0.0 0.0 0.0 0.0 0.0 0.0 0.0 0.0 0.0 0.0
0.0 0.0 0.0 0.0 0.0 0.0 0.1 0.0 0.0 0.0 0.0 0.2 0.0 0.5 0.0 0.0 0.0 0.0 0.0 0.0 0.0 0.0 0.0 0.0 0.0 0.0 0.0 0.0 0.0 0.0 0.0 0.0 0.0 0.0 0.0 0.0 0.0 0.0 0.0 0.0 0.0 0.0 0.0 0.0
0.0 0.0 0.0 0.0 0.0 0.0 0.0 0.0 0.0 0.0 0.0 0.0 0.0 0.4 0.0 0.0 0.0 0.0 0.0 0.0 0.0 0.0 0.0 0.0 0.0 0.0 0.0 0.0 0.0 0.0 0.0 0.0 0.0 0.0 0.0 0.0 0.0 0.0 0.0 0.0 0.0 0.0 0.0 0.0
0.0 0.0 0.0 0.0 0.0 0.0 0.0 0.0 0.0 0.0 0.0 2.3 0.0 0.0 0.0 0.0 0.0 0.0 0.0 0.0 0.0 0.0 0.0 0.0 0.0 0.0 0.0 0.0 0.0 0.0 0.0 0.0 0.0 0.0 0.0 0.0 0.0 0.0 0.0 0.0 0.0 0.0 0.0 0.0
0.0 0.0 0.0 0.0 0.0 0.0 0.0 0.1 2.4 1.7 1.7 0.0 0.0 0.0 0.0 0.1 0.0 0.0 0.0 0.0 0.0 0.0 0.0 0.0 0.0 0.0 0.0 0.0 0.0 0.0 0.0 0.0 0.0 0.0 0.0 0.0 0.0 0.0 0.0 0.0 0.0 0.0 0.0 0.0
0.2 0.2 0.0 0.0 0.0 0.0 0.0 0.0 1.1 2.2 0.9 0.4 0.0 1.0 0.1 0.0 0.0 0.0 0.0 0.0 0.0 1.5 1.0 0.5 0.1 0.0 0.0 0.0 0.0 0.0 0.0 0.0 0.0 0.0 0.0 0.0 0.0 0.0 0.0 0.0 0.0 0.0 0.0 0.0
0.0 0.0 0.0 0.0 0.0 0.0 0.0 0.8 0.0 1.2 0.9 3.4 0.2 0.0 0.1 0.4 2.6 0.0 2.3 0.0 0.0 0.0 0.0 1.9 0.9 0.6 0.3 0.0 0.0 0.0 0.0 0.0 0.0 0.0 0.0 0.0 0.0 0.0 0.0 0.0 0.0 0.0 0.0 0.0
0.0 0.1 0.0 0.0 0.0 0.0 0.0 0.0 2.6 3.0 9.1 3.2 0.1 0.3 3.0 3.2 5.8 2.8 4.0 4.1 3.4 1.3 1.6 0.0 0.8 0.4 0.0 0.0 0.0 0.0 0.0 0.0 0.0 0.0 0.0 0.0 0.0 0.0 0.0 0.0 0.0 0.0 0.0 0.0
0.0 0.0 0.0 0.0 0.0 0.0 0.0 0.4 0.4 0.7 1.1 4.3 1.8 4.8 2.6 4.2 0.0 0.0 1.4 1.0 1.2 1.1 0.6 0.5 0.5 0.2 0.0 0.0 0.0 0.1 0.1 0.0 0.0 0.0 0.0 0.0 0.0 0.0 0.0 0.0 0.0 0.0 0.0 0.0
0.0 0.1 0.4 0.0 0.0 0.0 0.0 0.0 0.0 7.9 7.4 4.2 3.6 3.6 0.0 0.0 0.0 0.0 0.0 0.0 0.0 0.0 0.0 0.2 0.1 0.0 0.0 0.0 0.0 0.0 0.0 0.0 0.0 0.0 0.0 0.0 0.0 0.0 0.0 0.0 0.0 0.0 0.0 0.0
0.0 1.3 2.6 0.7 0.0 0.0 0.1 0.0 0.0 0.2 1.6 4.6 8.3 1.4 0.0 0.0 0.0 0.0 0.0 0.0 0.0 0.0 0.0 0.0 0.0 0.0 0.0 0.0 0.0 0.0 0.0 0.0 0.0 0.0 0.0 0.0 0.0 0.0 0.0 0.0 0.0 0.0 0.0 0.0
0.0 0.9 2.8 4.0 0.9 0.3 0.3 0.0 0.0 2.0 10.0 4.7 2.3 0.0 0.1 0.0 0.0 0.0 0.0 0.0 0.0 0.0 0.0 0.0 0.0 0.0 0.0 0.0 0.0 0.0 0.0 0.0 0.0 0.0 0.0 0.0 0.0 0.0 0.0 0.0 0.0 0.0 0.0 0.0
0.6 5.4 3.4 1.8 1.0 0.5 0.3 0.3 0.0 0.4 0.2 5.7 0.8 0.8 0.0 0.0 0.0 0.0 0.4 0.3 0.1 0.0 0.0 0.0 0.0 0.0 0.0 0.0 0.0 0.0 0.0 0.0 0.0 0.0 0.0 0.0 0.0 0.0 0.0 0.0 0.0 0.0 0.0 0.0
0.0 4.1 3.6 2.9 1.2 1.6 0.9 0.1 0.1 0.3 0.6 1.4 1.3 0.9 0.0 0.0 0.0 0.9 0.8 0.5 0.4 0.0 0.0 0.0 0.0 0.0 0.0 0.0 0.1 0.1 0.1 0.1 0.0 0.1 0.0 0.0 0.0 0.0 0.0 0.0 0.0 0.0 0.0 0.0
2.3 4.5 5.2 3.0 1.0 2.4 3.7 0.1 0.2 0.1 0.4 0.6 2.2 0.2 0.0 1.3 1.1 1.0 0.7 0.6 0.5 0.2 0.1 0.0 0.3 0.1 0.2 0.4 0.4 0.5 0.5 0.2 0.0 0.3 0.2 0.2 0.9 0.0 0.7 0.7 0.6 0.9 0.7 0.4
2.3 3.3 6.9 8.6 1.8 20.1 0.3 0.0 1.1 0.4 1.1 0.9 0.8 0.3 0.2 0.5 1.0 1.0 0.9 1.0 0.9 1.3 1.7 1.3 1.3 1.1 1.1 0.6 0.7 0.5 1.1 0.6 2.4 1.8 2.2 1.7 2.4 3.4 4.4 4.7 4.6 4.0 2.9 3.0
0.0 1.8 15.6 19.2 12.3 0.3 0.0 1.7 5.0 6.1 4.7 2.8 2.3 1.4 1.3 1.2 0.9 3.1 2.1 1.6 2.6 3.2 3.6 6.2 1.9 1.8 2.3 1.8 1.7 3.7 4.8 5.1 4.8 6.6 6.9 6.9 7.1 7.2 6.8 7.5 6.7 5.8 5.7 5.6
0.0 0.7 8.4 15.6 21.7 13.3 5.4 0.9 0.0 3.2 7.5 2.1 2.8 2.5 2.0 2.4 3.8 3.8 2.1 3.4 4.6 4.7 4.2 3.7 6.6 6.1 4.5 4.8 3.2 5.0 8.3 9.9 11.1 12.4 12.3 8.9 7.7 8.0 9.5 7.7 9.1 9.5 6.9 7.3
4.8 9.0 18.8 14.1 14.5 5.5 3.0 1.4 1.6 8.7 7.9 2.3 3.8 4.2 3.0 5.5 4.0 6.1 6.3 7.3 7.9 4.6 4.0 3.7 3.0 4.9 7.3 6.0 6.3 7.8 9.5 11.2 12.2 14.3 12.4 10.3 10.1 11.4 10.8 10.2 9.8 13.2 14.8 12.1
4.1 8.6 13.5 15.9 24.4 16.5 0.3 1.2 5.5 5.6 3.3 2.9 4.3 4.4 4.8 4.2 4.0 6.5 7.6 10.2 9.5 6.5 2.9 2.1 3.0 2.8 1.5 1.0 1.1 6.2 11.2 12.6 14.2 14.0 12.2 11.4 10.4 9.7 10.1 10.0 11.9 11.4 12.4 16.4
14.9 9.2 11.7 7.8 9.1 3.3 1.6 3.0 3.1 2.8 3.0 3.7 3.6 3.9 3.6 3.8 8.6 9.3 10.1 11.1 11.8 7.3 1.8 1.0 0.9 0.4 0.3 0.2 0.0 0.9 3.0 5.8 9.8 11.9 13.2 11.4 10.4 9.7 8.4 9.1 10.2 11.0 11.8 11.5
0.6 1.2 6.7 3.8 3.6 2.4 2.5 1.8 1.5 2.1 2.5 2.7 2.1 3.1 7.0 10.7 11.6 12.6 13.2 10.9 9.1 6.2 1.5 0.5 0.1 0.1 0.4 0.5 0.6 0.1 1.3 2.5 3.8 5.1 6.3 7.2 7.3 7.6 7.1 6.1 6.1 6.3 8.0 8.8
0.3 0.8 2.4 4.6 3.8 2.4 2.0 2.5 1.9 2.6 2.2 2.6 2.6 1.8 3.5 4.9 6.1 3.9 4.4 5.3 5.8 5.7 3.5 1.2 0.7 0.6 1.1 0.6 0.4 1.2 1.7 2.1 3.5 4.5 5.0 5.3 5.3 5.0 4.8 4.9 4.3 3.8 5.3 3.8
1.5 6.3 5.9 6.0 2.2 3.8 5.6 3.6 2.2 2.5 4.2 3.1 1.0 0.8 0.9 1.8 3.2 3.5 3.4 2.7 2.6 3.1 2.9 1.9 2.0 1.3 1.0 0.1 1.3 1.9 1.5 0.6 1.1 2.0 3.5 3.0 3.6 2.7 2.7 2.0 4.3 3.5 3.4 3.2